This is the latest recevied weather packets stored in our database for station/object 9W3FAB-3. If no packets are shown the sender has not sent any weather packets the latest 10 day(s).
| Time | Temp. | Humidity | Pressure | Rain* | Wind** | Luminosity | Snow |
|---|---|---|---|---|---|---|---|
| 1777523958 | 23.89° C | 57% | 1008 hPa | - | - | - | - |
| 1777523057 | 23.89° C | 56% | 1008.2 hPa | - | - | - | - |
| 1777522156 | 23.89° C | 56% | 1008.3 hPa | - | - | - | - |
| 1777521263 | 23.89° C | 54% | 1008.6 hPa | - | - | - | - |
| 1777520354 | 23.89° C | 55% | 1008.9 hPa | - | - | - | - |
| 1777519453 | 23.89° C | 55% | 1008.9 hPa | - | - | - | - |
| 1777518552 | 23.89° C | 55% | 1008.7 hPa | - | - | - | - |
| 1777517717 | 23.33° C | 55% | 1008.5 hPa | - | - | - | - |
| 1777516808 | 23.89° C | 54% | 1008.9 hPa | - | - | - | - |
| 1777515909 | 23.89° C | 56% | 1009.1 hPa | - | - | - | - |
| 1777515000 | 23.33° C | 56% | 1009.5 hPa | - | - | - | - |
| 1777514099 | 23.89° C | 56% | 1009.4 hPa | - | - | - | - |
| 1777513188 | 23.33° C | 56% | 1009.5 hPa | - | - | - | - |
| 1777512287 | 23.89° C | 57% | 1009.3 hPa | - | - | - | - |
| 1777511386 | 23.89° C | 57% | 1009.3 hPa | - | - | - | - |
| 1777510485 | 23.89° C | 57% | 1009.1 hPa | - | - | - | - |
| 1777509585 | 24.44° C | 58% | 1009.1 hPa | - | - | - | - |
| 1777508684 | 24.44° C | 59% | 1009.1 hPa | - | - | - | - |
| 1777507783 | 25.56° C | 62% | 1008.9 hPa | - | - | - | - |
| 1777506882 | 27.22° C | 73% | 1008.5 hPa | - | - | - | - |
| 1777505981 | 27.22° C | 71% | 1008.8 hPa | - | - | - | - |
| 1777505080 | 26.67° C | 71% | 1008.5 hPa | - | - | - | - |
| 1777504179 | 27.22° C | 69% | 1008.1 hPa | - | - | - | - |
| 1777503279 | 27.22° C | 70% | 1008 hPa | - | - | - | - |
| 1777502378 | 27.22° C | 69% | 1007.8 hPa | - | - | - | - |
* Rain since midnight (hover to see other rain measurements)
** Current wind speed in m/s (hover to see current wind gust speed)